Miscellaneous Local Product
Issued by NWS Hastings, NE

Home | Current Version | Previous Version | Graphics & Text | Print | Product List | Glossary On
Versions: 1 2 3 4 5 6 7 8 9 10 11 12 13 14 15 16 17 18 19 20 21 22 23 24 25 26 27 28 29 30 31 32 33 34 35 36 37 38 39 40 41 42 43 44 45 46 47 48 49 50
521
AXUS43 KGID 100702
MISGRI

GID CWA HOURLY WEATHER ROUNDUP
NATIONAL WEATHER SERVICE HASTINGS NE
100 AM CST WED FEB 10 2016

NOTE: "FAIR" INDICATES FEW OR NO CLOUDS BELOW 12,000 FEET WITH NO
SIGNIFICANT WEATHER AND/OR OBSTRUCTIONS TO VISIBILITY.

...SOUTH CENTRAL NEBRASKA...

CITY           SKY/WX    TMP DP  RH WIND       PRES   REMARKS
GRAND ISLAND   CLOUDY    26  20  77 S9        30.11F WCI  17
HASTINGS       CLOUDY    27  19  72 S7        30.11F WCI  19
ORD            CLOUDY    27  24  89 CALM      30.06F
YORK           CLOUDY    25  18  74 SW13      30.14F WCI  13
AURORA         CLOUDY    26  17  69 S10       30.12F WCI  15
LEXINGTON      CLOUDY    32  25  75 CALM      30.10F
HOLDREGE       CLOUDY    30  24  78 SW8       30.11F WCI  23
HEBRON         CLOUDY    26  17  70 S7        30.18F WCI  18

...NEBRASKA PANHANDLE...

CITY           SKY/WX    TMP DP  RH WIND       PRES   REMARKS
CHADRON        CLEAR     34  26  72 SW8       30.07F WCI  27
ALLIANCE       CLEAR     30  25  81 W13       30.08F WCI  20
SCOTTSBLUFF    CLEAR     31  25  78 N3        30.14F
SIDNEY         CLEAR     36  25  64 W14       30.15F WCI  27

...WESTERN AND NORTH CENTRAL NEBRASKA...

CITY           SKY/WX    TMP DP  RH WIND       PRES   REMARKS
VALENTINE      CLEAR     30  27  88 SW12      30.00F WCI  20
AINSWORTH      CLOUDY    34  28  80 SW7       30.01F WCI  28
ONEILL         CLOUDY    29  23  78 S7        30.04F WCI  22
BROKEN BOW     CLOUDY    32  27  81 CALM      30.07F
IMPERIAL       CLEAR     36  26  67 W13       30.12F WCI  27
NORTH PLATTE   CLEAR     25  23  92 W5        30.08F WCI  19
MCCOOK         CLEAR     30  27  88 W10       30.11F WCI  21

...EASTERN NEBRASKA...

CITY           SKY/WX    TMP DP  RH WIND       PRES   REMARKS
NORFOLK        CLOUDY    26  17  68 S5        30.09F WCI  20
SO SIOUX CITY  CLOUDY    16  11  80 SE7       30.14F WCI   6
TEKAMAH        CLOUDY    38  13  35 S5        30.17F WCI  34
COLUMBUS       CLOUDY    27  10  50 S5        30.14F WCI  21
ALBION         CLOUDY    26  18  72 S6        30.09F WCI  19
OMAHA EPPLEY   CLOUDY    21  16  81 SE5       30.19F WCI  15
OFFUTT AFB     CLOUDY    21  16  83 SE1       30.18F
MILLARD        CLOUDY    20  14  76 CALM      30.19F
LINCOLN        CLOUDY    23  16  74 S5        30.18F WCI  17
NEBRASKA CITY  CLOUDY    19  13  76 S5        30.19F WCI  12
BEATRICE       CLOUDY    25  17  70 SW7       30.18F WCI  17
FALLS CITY     MOCLDY    19  11  70 S3        30.21F

...NORTHERN KANSAS...

CITY           SKY/WX    TMP DP  RH WIND       PRES   REMARKS
GOODLAND       CLEAR     37  26  64 W17       30.16F WCI  27
HILL CITY      CLEAR     30  23  75 W6        30.15F WCI  24
NORTON         SUNNY     28  21  74 SW8       30.11  WCI  20
PHILLIPSBURG   CLOUDY    30  25  80 CALM      30.15F
SMITH CENTER   CLOUDY    27  23  86 CALM      30.16F
BELOIT         CLOUDY    27  16  63 SE6       30.18F WCI  20
HAYS           CLOUDY    28  16  59 SW8       30.17F WCI  20
RUSSELL        CLOUDY    30  22  72 SW15      30.16F WCI  19
CONCORDIA      CLOUDY    26  15  63 S10       30.19F WCI  16
SALINA         CLOUDY    27  17  66 S8        30.22F WCI  19
TOPEKA         MOCLDY    24  12  60 CALM      30.24F



USA.gov is the U.S. government's official web portal to all federal, state and local government web resources and services.